Year,Month,Day,Hour,Minute,Value (Times are PST for windspeed in km/hr)
2016,01,18,00,00,15.50
2016,01,18,00,01,17.20
2016,01,18,00,02,15.30
2016,01,18,00,03,13.70
2016,01,18,00,04,15.00
2016,01,18,00,05,15.20
2016,01,18,00,06,13.90
2016,01,18,00,07,14.90
2016,01,18,00,08,11.50
2016,01,18,00,09,14.70
2016,01,18,00,10,11.60
2016,01,18,00,11,9.80
2016,01,18,00,12,12.20
2016,01,18,00,13,13.80
2016,01,18,00,14,11.00
2016,01,18,00,15,11.40
2016,01,18,00,16,9.50
2016,01,18,00,17,12.40
2016,01,18,00,18,15.30
2016,01,18,00,19,14.00
2016,01,18,00,20,14.10
2016,01,18,00,21,12.50
2016,01,18,00,22,13.50
2016,01,18,00,23,11.60
2016,01,18,00,24,12.60
2016,01,18,00,25,11.70
2016,01,18,00,26,11.70
2016,01,18,00,27,12.80
2016,01,18,00,28,10.50
2016,01,18,00,29,12.30
2016,01,18,00,30,12.70
2016,01,18,00,31,12.30
2016,01,18,00,32,10.40
2016,01,18,00,33,10.80
2016,01,18,00,34,9.70
2016,01,18,00,35,7.70
2016,01,18,00,36,8.80
2016,01,18,00,37,6.50
2016,01,18,00,38,4.80
2016,01,18,00,39,4.40
2016,01,18,00,40,3.40
2016,01,18,00,41,5.50
2016,01,18,00,42,4.80
2016,01,18,00,43,4.70
2016,01,18,00,44,5.50
2016,01,18,00,45,5.20
2016,01,18,00,46,5.70
2016,01,18,00,47,6.20
2016,01,18,00,48,5.70
2016,01,18,00,49,5.90
2016,01,18,00,50,4.30
2016,01,18,00,51,4.40
2016,01,18,00,52,5.00
2016,01,18,00,53,3.90
2016,01,18,00,54,2.90
2016,01,18,00,55,2.10
2016,01,18,00,56,2.50
2016,01,18,00,57,1.60
2016,01,18,00,58,2.10
2016,01,18,00,59,3.00
2016,01,18,01,00,3.70
2016,01,18,01,01,3.90
2016,01,18,01,02,4.70
2016,01,18,01,03,4.10
2016,01,18,01,04,3.60
2016,01,18,01,05,3.40
2016,01,18,01,06,3.40
2016,01,18,01,07,4.60
2016,01,18,01,08,7.00
2016,01,18,01,09,7.20
2016,01,18,01,10,8.10
2016,01,18,01,11,7.40
2016,01,18,01,12,5.70
2016,01,18,01,13,5.80
2016,01,18,01,14,6.10
2016,01,18,01,15,5.40
2016,01,18,01,16,4.50
2016,01,18,01,17,5.30
2016,01,18,01,18,4.00
2016,01,18,01,19,2.50
2016,01,18,01,20,3.30
2016,01,18,01,21,2.70
2016,01,18,01,22,3.50
2016,01,18,01,23,3.40
2016,01,18,01,24,4.00
2016,01,18,01,25,3.20
2016,01,18,01,26,2.30
2016,01,18,01,27,0.70
2016,01,18,01,28,1.30
2016,01,18,01,29,1.40
2016,01,18,01,30,0.00
2016,01,18,01,31,0.50
2016,01,18,01,32,1.20
2016,01,18,01,33,1.30
2016,01,18,01,34,2.30
2016,01,18,01,35,1.70
2016,01,18,01,36,2.40
2016,01,18,01,37,2.30
2016,01,18,01,38,1.80
2016,01,18,01,39,1.50
2016,01,18,01,40,1.60
2016,01,18,01,41,1.30
2016,01,18,01,42,1.80
2016,01,18,01,43,2.60
2016,01,18,01,44,2.40
2016,01,18,01,45,3.20
2016,01,18,01,46,2.70
2016,01,18,01,47,1.90
2016,01,18,01,48,1.70
2016,01,18,01,49,1.90
2016,01,18,01,50,1.70
2016,01,18,01,51,1.80
2016,01,18,01,52,2.40
2016,01,18,01,53,2.80
2016,01,18,01,54,2.60
2016,01,18,01,55,2.70
2016,01,18,01,56,2.00
2016,01,18,01,57,1.90
2016,01,18,01,58,2.10
2016,01,18,01,59,2.20
2016,01,18,02,00,2.10
2016,01,18,02,01,1.30
2016,01,18,02,02,0.60
2016,01,18,02,03,0.10
2016,01,18,02,04,0.20
2016,01,18,02,05,0.00
2016,01,18,02,06,0.00
2016,01,18,02,07,0.00
2016,01,18,02,08,0.00
2016,01,18,02,09,0.00
2016,01,18,02,10,0.00
2016,01,18,02,11,0.00
2016,01,18,02,12,0.00
2016,01,18,02,13,0.30
2016,01,18,02,14,2.10
2016,01,18,02,15,2.40
2016,01,18,02,16,4.30
2016,01,18,02,17,5.40
2016,01,18,02,18,5.70
2016,01,18,02,19,5.50
2016,01,18,02,20,5.20
2016,01,18,02,21,2.70
2016,01,18,02,22,2.00
2016,01,18,02,23,0.60
2016,01,18,02,24,0.00
2016,01,18,02,25,0.00
2016,01,18,02,26,1.70
2016,01,18,02,27,2.10
2016,01,18,02,28,2.40
2016,01,18,02,29,1.90
2016,01,18,02,30,0.60
2016,01,18,02,31,0.00
2016,01,18,02,32,0.00
2016,01,18,02,33,0.80
2016,01,18,02,34,2.40
2016,01,18,02,35,3.00
2016,01,18,02,36,3.20
2016,01,18,02,37,3.00
2016,01,18,02,38,1.50
2016,01,18,02,39,0.30
2016,01,18,02,40,0.00
2016,01,18,02,41,0.00
2016,01,18,02,42,0.00
2016,01,18,02,43,1.30
2016,01,18,02,44,3.60
2016,01,18,02,45,3.40
2016,01,18,02,46,3.10
2016,01,18,02,47,2.50
2016,01,18,02,48,2.30
2016,01,18,02,49,4.10
2016,01,18,02,50,6.30
2016,01,18,02,51,8.70
2016,01,18,02,52,8.90
2016,01,18,02,53,8.30
2016,01,18,02,54,7.70
2016,01,18,02,55,7.40
2016,01,18,02,56,5.50
2016,01,18,02,57,4.50
2016,01,18,02,58,3.30
2016,01,18,02,59,3.30
2016,01,18,03,00,3.40
2016,01,18,03,01,3.20
2016,01,18,03,02,3.00
2016,01,18,03,03,2.30
2016,01,18,03,04,1.70
2016,01,18,03,05,1.80
2016,01,18,03,06,1.70
2016,01,18,03,07,2.20
2016,01,18,03,08,3.90
2016,01,18,03,09,4.60
2016,01,18,03,10,4.20
2016,01,18,03,11,4.80
2016,01,18,03,12,4.00
2016,01,18,03,13,4.10
2016,01,18,03,14,4.70
2016,01,18,03,15,4.20
2016,01,18,03,16,3.80
2016,01,18,03,17,3.80
2016,01,18,03,18,4.30
2016,01,18,03,19,4.90
2016,01,18,03,20,5.50
2016,01,18,03,21,5.70
2016,01,18,03,22,5.50
2016,01,18,03,23,5.30
2016,01,18,03,24,5.50
2016,01,18,03,25,5.20
2016,01,18,03,26,5.40
2016,01,18,03,27,4.80
2016,01,18,03,28,5.30
2016,01,18,03,29,4.70
2016,01,18,03,30,5.10
2016,01,18,03,31,5.30
2016,01,18,03,32,5.30
2016,01,18,03,33,3.80
2016,01,18,03,34,3.80
2016,01,18,03,35,4.20
2016,01,18,03,36,5.70
2016,01,18,03,37,5.80
2016,01,18,03,38,5.90
2016,01,18,03,39,5.70
2016,01,18,03,40,6.20
2016,01,18,03,41,5.90
2016,01,18,03,42,5.80
2016,01,18,03,43,5.20
2016,01,18,03,44,5.90
2016,01,18,03,45,5.70
2016,01,18,03,46,5.00
2016,01,18,03,47,4.90
2016,01,18,03,48,4.30
2016,01,18,03,49,5.20
2016,01,18,03,50,5.30
2016,01,18,03,51,4.90
2016,01,18,03,52,5.60
2016,01,18,03,53,6.90
2016,01,18,03,54,6.40
2016,01,18,03,55,6.50
2016,01,18,03,56,7.00
2016,01,18,03,57,6.00
2016,01,18,03,58,5.50
2016,01,18,03,59,5.00
2016,01,18,04,00,5.60
2016,01,18,04,01,4.30
2016,01,18,04,02,4.20
2016,01,18,04,03,4.50
2016,01,18,04,04,4.70
2016,01,18,04,05,4.80
2016,01,18,04,06,5.10
2016,01,18,04,07,4.70
2016,01,18,04,08,4.90
2016,01,18,04,09,5.80
2016,01,18,04,10,4.70
2016,01,18,04,11,5.20
2016,01,18,04,12,4.60
2016,01,18,04,13,3.90
2016,01,18,04,14,3.20
2016,01,18,04,15,3.20
2016,01,18,04,16,3.40
2016,01,18,04,17,4.40
2016,01,18,04,18,4.20
2016,01,18,04,19,4.00
2016,01,18,04,20,4.10
2016,01,18,04,21,3.00
2016,01,18,04,22,3.00
2016,01,18,04,23,3.30
2016,01,18,04,24,3.30
2016,01,18,04,25,3.70
2016,01,18,04,26,1.40
2016,01,18,04,27,1.40
2016,01,18,04,28,1.80
2016,01,18,04,29,5.60
2016,01,18,04,30,6.40
2016,01,18,04,31,6.40
2016,01,18,04,32,6.70
2016,01,18,04,33,5.20
2016,01,18,04,34,6.40
2016,01,18,04,35,6.90
2016,01,18,04,36,7.10
2016,01,18,04,37,5.50
2016,01,18,04,38,6.30
2016,01,18,04,39,5.40
2016,01,18,04,40,6.00
2016,01,18,04,41,4.70
2016,01,18,04,42,4.90
2016,01,18,04,43,5.00
2016,01,18,04,44,4.40
2016,01,18,04,45,4.70
2016,01,18,04,46,4.60
2016,01,18,04,47,3.80
2016,01,18,04,48,3.20
2016,01,18,04,49,3.50
2016,01,18,04,50,2.60
2016,01,18,04,51,1.10
2016,01,18,04,52,1.20
2016,01,18,04,53,2.80
2016,01,18,04,54,0.90
2016,01,18,04,55,0.30
2016,01,18,04,56,0.20
2016,01,18,04,57,0.00
2016,01,18,04,58,0.10
2016,01,18,04,59,1.30
2016,01,18,05,00,0.40
2016,01,18,05,01,0.00
2016,01,18,05,02,1.30
2016,01,18,05,03,2.00
2016,01,18,05,04,3.40
2016,01,18,05,05,3.80
2016,01,18,05,06,1.80
2016,01,18,05,07,3.80
2016,01,18,05,08,3.20
2016,01,18,05,09,4.40
2016,01,18,05,10,5.10
2016,01,18,05,11,3.90
2016,01,18,05,12,7.00
2016,01,18,05,13,5.50
2016,01,18,05,14,3.50
2016,01,18,05,15,4.10
2016,01,18,05,16,5.00
2016,01,18,05,17,3.10
2016,01,18,05,18,2.50
2016,01,18,05,19,3.20
2016,01,18,05,20,2.50
2016,01,18,05,21,1.30
2016,01,18,05,22,0.20
2016,01,18,05,23,0.20
2016,01,18,05,24,1.30
2016,01,18,05,25,1.40
2016,01,18,05,26,0.80
2016,01,18,05,27,0.00
2016,01,18,05,28,0.30
2016,01,18,05,29,0.10
2016,01,18,05,30,2.30
2016,01,18,05,31,2.80
2016,01,18,05,32,1.40
2016,01,18,05,33,3.20
2016,01,18,05,34,5.90
2016,01,18,05,35,2.80
2016,01,18,05,36,3.60
2016,01,18,05,37,4.80
2016,01,18,05,38,5.90
2016,01,18,05,39,6.20
2016,01,18,05,40,5.60
2016,01,18,05,41,5.40
2016,01,18,05,42,8.00
2016,01,18,05,43,8.40
2016,01,18,05,44,8.50
2016,01,18,05,45,10.50
2016,01,18,05,46,12.00
2016,01,18,05,47,12.30
2016,01,18,05,48,9.80
2016,01,18,05,49,12.10
2016,01,18,05,50,12.70
2016,01,18,05,51,6.30
2016,01,18,05,52,6.30
2016,01,18,05,53,5.30
2016,01,18,05,54,4.50
2016,01,18,05,55,5.50
2016,01,18,05,56,4.90
2016,01,18,05,57,3.80
2016,01,18,05,58,7.10
2016,01,18,05,59,12.20
2016,01,18,06,00,10.40
2016,01,18,06,01,12.00
2016,01,18,06,02,10.10
2016,01,18,06,03,11.00
2016,01,18,06,04,4.80
2016,01,18,06,05,7.80
2016,01,18,06,06,11.30
2016,01,18,06,07,12.60
2016,01,18,06,08,13.50
2016,01,18,06,09,11.60
2016,01,18,06,10,8.60
2016,01,18,06,11,6.10
2016,01,18,06,12,3.20
2016,01,18,06,13,5.80
2016,01,18,06,14,5.30
2016,01,18,06,15,4.50
2016,01,18,06,16,5.10
2016,01,18,06,17,9.70
2016,01,18,06,18,10.60
2016,01,18,06,19,9.20
2016,01,18,06,20,8.40
2016,01,18,06,21,11.00
2016,01,18,06,22,14.30
2016,01,18,06,23,13.80
2016,01,18,06,24,15.10
2016,01,18,06,25,15.60
2016,01,18,06,26,17.40
2016,01,18,06,27,15.00
2016,01,18,06,28,14.30
2016,01,18,06,29,11.50
2016,01,18,06,30,10.10
2016,01,18,06,31,7.70
2016,01,18,06,32,9.90
2016,01,18,06,33,6.40
2016,01,18,06,34,5.20
2016,01,18,06,35,6.00
2016,01,18,06,36,5.60
2016,01,18,06,37,5.80
2016,01,18,06,38,11.10
2016,01,18,06,39,12.40
2016,01,18,06,40,13.20
2016,01,18,06,41,14.00
2016,01,18,06,42,12.90
2016,01,18,06,43,11.80
2016,01,18,06,44,11.70
2016,01,18,06,45,11.10
2016,01,18,06,46,9.20
2016,01,18,06,47,10.50
2016,01,18,06,48,8.00
2016,01,18,06,49,8.00
2016,01,18,06,50,7.30
2016,01,18,06,51,7.20
2016,01,18,06,52,6.20
2016,01,18,06,53,7.80
2016,01,18,06,54,11.00
2016,01,18,06,55,10.20
2016,01,18,06,56,9.10
2016,01,18,06,57,8.10
2016,01,18,06,58,7.80
2016,01,18,06,59,9.40
2016,01,18,07,00,8.30
2016,01,18,07,01,9.50
2016,01,18,07,02,8.40
2016,01,18,07,03,7.90
2016,01,18,07,04,7.70
2016,01,18,07,05,6.80
2016,01,18,07,06,5.80
2016,01,18,07,07,3.70
2016,01,18,07,08,2.70
2016,01,18,07,09,4.50
2016,01,18,07,10,4.40
2016,01,18,07,11,5.30
2016,01,18,07,12,5.50
2016,01,18,07,13,4.40
2016,01,18,07,14,4.00
2016,01,18,07,15,3.70
2016,01,18,07,16,3.60
2016,01,18,07,17,3.50
2016,01,18,07,18,3.50
2016,01,18,07,19,3.50
2016,01,18,07,20,3.60
2016,01,18,07,21,3.20
2016,01,18,07,22,3.00
2016,01,18,07,23,2.10
2016,01,18,07,24,1.80
2016,01,18,07,25,1.60
2016,01,18,07,26,1.20
2016,01,18,07,27,1.60
2016,01,18,07,28,2.90
2016,01,18,07,29,4.20
2016,01,18,07,30,4.90
2016,01,18,07,31,5.10
2016,01,18,07,32,5.70
2016,01,18,07,33,5.10
2016,01,18,07,34,4.90
2016,01,18,07,35,4.60
2016,01,18,07,36,4.80
2016,01,18,07,37,5.40
2016,01,18,07,38,5.90
2016,01,18,07,39,6.00
2016,01,18,07,40,5.90
2016,01,18,07,41,5.40
2016,01,18,07,42,5.80
2016,01,18,07,43,5.60
2016,01,18,07,44,5.60
2016,01,18,07,45,5.70
2016,01,18,07,46,5.70
2016,01,18,07,47,5.70
2016,01,18,07,48,5.30
2016,01,18,07,49,4.40
2016,01,18,07,50,3.40
2016,01,18,07,51,3.10
2016,01,18,07,52,4.20
2016,01,18,07,53,3.30
2016,01,18,07,54,3.50
2016,01,18,07,55,2.80
2016,01,18,07,56,3.30
2016,01,18,07,57,4.20
2016,01,18,07,58,3.20
2016,01,18,07,59,3.50
2016,01,18,08,00,3.80
2016,01,18,08,01,4.70
2016,01,18,08,02,5.40
2016,01,18,08,03,8.40
2016,01,18,08,04,7.20
2016,01,18,08,05,8.20
2016,01,18,08,06,8.80
2016,01,18,08,07,10.60
2016,01,18,08,08,10.70
2016,01,18,08,09,12.30
2016,01,18,08,10,10.00
2016,01,18,08,11,11.30
2016,01,18,08,12,10.70
2016,01,18,08,13,12.20
2016,01,18,08,14,15.00
2016,01,18,08,15,13.30
2016,01,18,08,16,9.00
2016,01,18,08,17,8.10
2016,01,18,08,18,8.00
2016,01,18,08,19,10.20
2016,01,18,08,20,10.10
2016,01,18,08,21,11.10
2016,01,18,08,22,8.50
2016,01,18,08,23,7.50
2016,01,18,08,24,8.10
2016,01,18,08,25,8.10
2016,01,18,08,26,8.10
2016,01,18,08,27,8.10
2016,01,18,08,28,8.10
2016,01,18,08,29,8.10
2016,01,18,08,30,8.10
2016,01,18,08,31,8.10
2016,01,18,08,32,8.10
2016,01,18,13,03,4.90
2016,01,18,13,04,5.60
2016,01,18,13,05,5.40
2016,01,18,13,06,6.10
2016,01,18,13,07,5.60
2016,01,18,13,08,5.40
2016,01,18,13,09,4.80
2016,01,18,13,10,4.20
2016,01,18,13,11,4.40
2016,01,18,13,12,4.90
2016,01,18,13,13,5.00
2016,01,18,13,14,5.60
2016,01,18,13,15,4.20
2016,01,18,13,16,2.70
2016,01,18,13,17,2.50
2016,01,18,13,18,2.10
2016,01,18,13,19,2.20
2016,01,18,13,20,2.10
2016,01,18,13,21,2.90
2016,01,18,13,22,5.10
2016,01,18,13,23,5.20
2016,01,18,13,24,4.40
2016,01,18,13,25,4.00
2016,01,18,13,26,4.50
2016,01,18,13,27,4.80
2016,01,18,13,28,5.10
2016,01,18,13,29,3.20
2016,01,18,13,30,3.30
2016,01,18,13,31,3.80
2016,01,18,13,32,4.90
2016,01,18,13,33,4.10
2016,01,18,13,34,3.30
2016,01,18,13,35,4.20
2016,01,18,13,36,2.70
2016,01,18,13,37,4.50
2016,01,18,13,38,3.60
2016,01,18,13,39,4.00
2016,01,18,13,40,3.90
2016,01,18,13,41,2.90
2016,01,18,13,42,1.10
2016,01,18,13,43,1.50
2016,01,18,13,44,2.40
2016,01,18,13,45,2.40
2016,01,18,13,46,0.90
2016,01,18,13,47,0.20
2016,01,18,13,48,1.30
2016,01,18,13,49,3.30
2016,01,18,13,50,5.80
2016,01,18,13,51,5.70
2016,01,18,13,52,5.30
2016,01,18,13,53,3.90
2016,01,18,13,54,3.30
2016,01,18,13,55,3.20
2016,01,18,13,56,2.70
2016,01,18,13,57,3.20
2016,01,18,13,58,4.30
2016,01,18,13,59,4.50
2016,01,18,14,00,4.40
2016,01,18,14,01,3.70
2016,01,18,14,02,4.00
2016,01,18,14,03,4.10
2016,01,18,14,04,4.00
2016,01,18,14,05,3.50
2016,01,18,14,06,2.30
2016,01,18,14,07,2.80
2016,01,18,14,08,1.80
2016,01,18,14,09,0.70
2016,01,18,14,10,0.00
2016,01,18,14,11,0.00
2016,01,18,14,12,1.20
2016,01,18,14,13,1.60
2016,01,18,14,14,0.60
2016,01,18,14,15,0.10
2016,01,18,14,16,0.00
2016,01,18,14,17,0.00
2016,01,18,14,18,1.50
2016,01,18,14,19,2.70
2016,01,18,14,20,3.70
2016,01,18,14,21,4.40
2016,01,18,14,22,3.50
2016,01,18,14,23,2.70
2016,01,18,14,24,1.40
2016,01,18,14,25,1.60
2016,01,18,14,26,1.60
2016,01,18,14,27,1.80
2016,01,18,14,28,2.20
2016,01,18,14,29,2.70
2016,01,18,14,30,3.50
2016,01,18,14,31,4.50
2016,01,18,14,32,5.60
2016,01,18,14,33,4.90
2016,01,18,14,34,6.40
2016,01,18,14,35,7.70
2016,01,18,14,36,8.30
2016,01,18,14,37,8.40
2016,01,18,14,38,8.10
2016,01,18,14,39,7.40
2016,01,18,14,40,6.30
2016,01,18,14,41,6.40
2016,01,18,14,42,6.60
2016,01,18,14,43,5.70
2016,01,18,14,44,3.90
2016,01,18,14,45,4.60
2016,01,18,14,46,5.60
2016,01,18,14,47,4.80
2016,01,18,14,48,5.20
2016,01,18,14,49,6.80
2016,01,18,14,50,5.80
2016,01,18,14,51,5.30
2016,01,18,14,52,5.00
2016,01,18,14,53,5.50
2016,01,18,14,54,4.00
2016,01,18,14,55,4.50
2016,01,18,14,56,5.50
2016,01,18,14,57,5.30
2016,01,18,14,58,6.30
2016,01,18,14,59,4.70
2016,01,18,15,00,6.10
2016,01,18,15,01,6.80
2016,01,18,15,02,6.80
2016,01,18,15,03,7.60
2016,01,18,15,04,6.90
2016,01,18,15,05,6.20
2016,01,18,15,06,6.50
2016,01,18,15,07,6.90
2016,01,18,15,08,6.80
2016,01,18,15,09,5.00
2016,01,18,15,10,5.20
2016,01,18,15,11,5.70
2016,01,18,15,12,6.80
2016,01,18,15,13,6.40
2016,01,18,15,14,7.60
2016,01,18,15,15,5.80
2016,01,18,15,16,4.70
2016,01,18,15,17,4.00
2016,01,18,15,18,5.00
2016,01,18,15,19,5.30
2016,01,18,15,20,6.60
2016,01,18,15,21,6.10
2016,01,18,15,22,6.30
2016,01,18,15,23,5.90
2016,01,18,15,24,5.00
2016,01,18,15,25,5.40
2016,01,18,15,26,4.20
2016,01,18,15,27,4.00
2016,01,18,15,28,3.50
2016,01,18,15,29,2.30
2016,01,18,15,30,2.20
2016,01,18,15,31,3.60
2016,01,18,15,32,3.40
2016,01,18,15,33,4.70
2016,01,18,15,34,5.30
2016,01,18,15,35,6.10
2016,01,18,15,36,7.60
2016,01,18,15,37,7.40
2016,01,18,15,38,7.30
2016,01,18,15,39,6.80
2016,01,18,15,40,6.70
2016,01,18,15,41,5.40
2016,01,18,15,42,7.60
2016,01,18,15,43,4.10
2016,01,18,15,44,5.70
2016,01,18,15,45,3.90
2016,01,18,15,46,5.90
2016,01,18,15,47,5.10
2016,01,18,15,48,5.30
2016,01,18,15,49,6.60
2016,01,18,15,50,7.60
2016,01,18,15,51,13.60
2016,01,18,15,52,16.10
2016,01,18,15,53,25.10
2016,01,18,15,54,24.60
2016,01,18,15,55,24.60
2016,01,18,15,56,28.70
2016,01,18,15,57,27.80
2016,01,18,15,58,28.90
2016,01,18,15,59,27.20
2016,01,18,16,00,29.10
2016,01,18,16,01,27.00
2016,01,18,16,02,29.40
2016,01,18,16,03,31.20
2016,01,18,16,04,29.10
2016,01,18,16,05,30.80
2016,01,18,16,06,29.50
2016,01,18,16,07,28.40
2016,01,18,16,08,28.40
2016,01,18,16,09,25.70
2016,01,18,16,10,26.80
2016,01,18,16,11,30.20
2016,01,18,16,12,26.80
2016,01,18,16,13,29.50
2016,01,18,16,14,28.40
2016,01,18,16,15,26.10
2016,01,18,16,16,27.60
2016,01,18,16,17,29.30
2016,01,18,16,18,28.60
2016,01,18,16,19,31.80
2016,01,18,16,20,27.00
2016,01,18,16,21,27.40
2016,01,18,16,22,25.50
2016,01,18,16,23,26.70
2016,01,18,16,24,28.90
2016,01,18,16,25,29.60
2016,01,18,16,26,25.50
2016,01,18,16,27,22.90
2016,01,18,16,28,21.20
2016,01,18,16,29,23.70
2016,01,18,16,30,19.90
2016,01,18,16,31,16.50
2016,01,18,16,32,14.30
2016,01,18,16,33,11.20
2016,01,18,16,34,11.90
2016,01,18,16,35,9.80
2016,01,18,16,36,12.70
2016,01,18,16,37,9.30
2016,01,18,16,38,5.40
2016,01,18,16,39,9.20
2016,01,18,16,40,13.50
2016,01,18,16,41,20.90
2016,01,18,16,42,19.30
2016,01,18,16,43,18.40
2016,01,18,16,44,25.30
2016,01,18,16,45,25.40
2016,01,18,16,46,25.50
2016,01,18,16,47,25.60
2016,01,18,16,48,24.30
2016,01,18,16,49,23.10
2016,01,18,16,50,28.10
2016,01,18,16,51,27.30
2016,01,18,16,52,30.80
2016,01,18,16,53,29.20
2016,01,18,16,54,28.60
2016,01,18,16,55,28.90
2016,01,18,16,56,32.50
2016,01,18,16,57,31.80
2016,01,18,16,58,33.70
2016,01,18,16,59,31.30
2016,01,18,17,00,33.40
2016,01,18,17,01,29.10
2016,01,18,17,02,32.00
2016,01,18,17,03,32.70
2016,01,18,17,04,31.20
2016,01,18,17,05,38.30
2016,01,18,17,06,32.30
2016,01,18,17,07,31.60
2016,01,18,17,08,30.20
2016,01,18,17,09,34.60
2016,01,18,17,10,33.80
2016,01,18,17,11,36.00
2016,01,18,17,12,32.30
2016,01,18,17,13,35.70
2016,01,18,17,14,33.70
2016,01,18,17,15,34.60
2016,01,18,17,16,34.00
2016,01,18,17,17,28.10
2016,01,18,17,18,30.60
2016,01,18,17,19,30.70
2016,01,18,17,20,36.30
2016,01,18,17,21,35.80
2016,01,18,17,22,35.30
2016,01,18,17,23,31.90
2016,01,18,17,24,29.90
2016,01,18,17,25,31.60
2016,01,18,17,26,31.40
2016,01,18,17,27,31.00
2016,01,18,17,28,31.50
2016,01,18,17,29,35.10
2016,01,18,17,30,32.50
2016,01,18,17,31,32.90
2016,01,18,17,32,40.60
2016,01,18,17,33,33.00
2016,01,18,17,34,32.90
2016,01,18,17,35,35.70
2016,01,18,17,36,38.50
2016,01,18,17,37,35.80
2016,01,18,17,38,32.70
2016,01,18,17,39,30.80
2016,01,18,17,40,32.80
2016,01,18,17,41,38.30
2016,01,18,17,42,33.10
2016,01,18,17,43,35.70
2016,01,18,17,44,31.80
2016,01,18,17,45,34.60
2016,01,18,17,46,27.90
2016,01,18,17,47,34.70
2016,01,18,17,48,38.20
2016,01,18,17,49,35.10
2016,01,18,17,50,33.80
2016,01,18,17,51,33.40
2016,01,18,17,52,37.70
2016,01,18,17,53,31.30
2016,01,18,17,54,31.00
2016,01,18,17,55,30.90
2016,01,18,17,56,33.60
2016,01,18,17,57,27.50
2016,01,18,17,58,28.90
2016,01,18,17,59,33.40
2016,01,18,18,00,34.30
2016,01,18,18,01,30.70
2016,01,18,18,02,30.00
2016,01,18,18,03,27.60
2016,01,18,18,04,23.80
2016,01,18,18,05,27.60
2016,01,18,18,06,28.60
2016,01,18,18,07,26.40
2016,01,18,18,08,25.00
2016,01,18,18,09,26.10
2016,01,18,18,10,26.40
2016,01,18,18,11,21.20
2016,01,18,18,12,26.90
2016,01,18,18,13,30.60
2016,01,18,18,14,25.50
2016,01,18,18,15,22.50
2016,01,18,18,16,29.30
2016,01,18,18,17,32.70
2016,01,18,18,18,26.90
2016,01,18,18,19,29.40
2016,01,18,18,20,27.60
2016,01,18,18,21,27.10
2016,01,18,18,22,30.90
2016,01,18,18,23,24.60
2016,01,18,18,24,23.40
2016,01,18,18,25,21.00
2016,01,18,18,26,21.80
2016,01,18,18,27,20.40
2016,01,18,18,28,21.60
2016,01,18,18,29,23.90
2016,01,18,18,30,28.50
2016,01,18,18,31,22.60
2016,01,18,18,32,20.70
2016,01,18,18,33,18.10
2016,01,18,18,34,22.50
2016,01,18,18,35,19.20
2016,01,18,18,36,17.90
2016,01,18,18,37,21.30
2016,01,18,18,38,22.90
2016,01,18,18,39,21.70
2016,01,18,18,40,25.00
2016,01,18,18,41,29.60
2016,01,18,18,42,28.30
2016,01,18,18,43,27.00
2016,01,18,18,44,28.50
2016,01,18,18,45,28.20
2016,01,18,18,46,16.40
2016,01,18,18,47,15.00
2016,01,18,18,48,17.60
2016,01,18,18,49,16.00
2016,01,18,18,50,17.70
2016,01,18,18,51,12.10
2016,01,18,18,52,17.80
2016,01,18,18,53,17.10
2016,01,18,18,54,18.50
2016,01,18,18,55,14.80
2016,01,18,18,56,12.60
2016,01,18,18,57,10.00
2016,01,18,18,58,14.20
2016,01,18,18,59,12.80
2016,01,18,19,00,12.20
2016,01,18,19,01,10.40
2016,01,18,19,02,11.30
2016,01,18,19,03,8.70
2016,01,18,19,04,8.50
2016,01,18,19,05,9.20
2016,01,18,19,06,8.20
2016,01,18,19,07,6.90
2016,01,18,19,08,6.70
2016,01,18,19,09,6.30
2016,01,18,19,10,6.20
2016,01,18,19,11,2.90
2016,01,18,19,12,4.50
2016,01,18,19,13,3.10
2016,01,18,19,14,2.70
2016,01,18,19,15,3.50
2016,01,18,19,16,3.90
2016,01,18,19,17,3.50
2016,01,18,19,18,6.20
2016,01,18,19,19,5.60
2016,01,18,19,20,4.80
2016,01,18,19,21,4.50
2016,01,18,19,22,4.90
2016,01,18,19,23,3.40
2016,01,18,19,24,3.80
2016,01,18,19,25,4.80
2016,01,18,19,26,3.50
2016,01,18,19,27,4.70
2016,01,18,19,28,4.70
2016,01,18,19,29,4.10
2016,01,18,19,30,3.40
2016,01,18,19,31,2.70
2016,01,18,19,32,2.10
2016,01,18,19,33,1.80
2016,01,18,19,34,2.40
2016,01,18,19,35,3.90
2016,01,18,19,36,4.70
2016,01,18,19,37,4.50
2016,01,18,19,38,3.50
2016,01,18,19,39,3.10
2016,01,18,19,40,2.20
2016,01,18,19,41,2.10
2016,01,18,19,42,1.90
2016,01,18,19,43,2.70
2016,01,18,19,44,2.50
2016,01,18,19,45,2.30
2016,01,18,19,46,0.90
2016,01,18,19,47,0.20
2016,01,18,19,48,1.10
2016,01,18,19,49,2.40
2016,01,18,19,50,1.60
2016,01,18,19,51,0.00
2016,01,18,19,52,0.00
2016,01,18,19,53,0.00
2016,01,18,19,54,0.00
2016,01,18,19,55,0.00
2016,01,18,19,56,0.00
2016,01,18,19,57,0.00
2016,01,18,19,58,0.00
2016,01,18,19,59,0.00
2016,01,18,20,00,0.00
2016,01,18,20,01,1.00
2016,01,18,20,02,1.00
2016,01,18,20,03,1.50
2016,01,18,20,04,1.60
2016,01,18,20,05,0.80
2016,01,18,20,06,0.00
2016,01,18,20,07,0.00
2016,01,18,20,08,1.80
2016,01,18,20,09,2.30
2016,01,18,20,10,2.70
2016,01,18,20,11,2.90
2016,01,18,20,12,2.30
2016,01,18,20,13,1.90
2016,01,18,20,14,2.00
2016,01,18,20,15,1.80
2016,01,18,20,16,1.30
2016,01,18,20,17,0.00
2016,01,18,20,18,0.00
2016,01,18,20,19,0.00
2016,01,18,20,20,0.30
2016,01,18,20,21,1.20
2016,01,18,20,22,2.60
2016,01,18,20,23,2.50
2016,01,18,20,24,1.90
2016,01,18,20,25,3.40
2016,01,18,20,26,2.20
2016,01,18,20,27,1.70
2016,01,18,20,28,0.50
2016,01,18,20,29,0.00
2016,01,18,20,30,0.00
2016,01,18,20,31,0.10
2016,01,18,20,32,1.60
2016,01,18,20,33,2.20
2016,01,18,20,34,2.30
2016,01,18,20,35,2.90
2016,01,18,20,36,4.40
2016,01,18,20,37,4.00
2016,01,18,20,38,2.90
2016,01,18,20,39,2.30
2016,01,18,20,40,1.70
2016,01,18,20,41,0.10
2016,01,18,20,42,0.00
2016,01,18,20,43,0.00
2016,01,18,20,44,0.00
2016,01,18,20,45,0.00
2016,01,18,20,46,0.00
2016,01,18,20,47,0.00
2016,01,18,20,48,0.00
2016,01,18,20,49,0.00
2016,01,18,20,50,0.00
2016,01,18,20,51,0.00
2016,01,18,20,52,1.10
2016,01,18,20,53,2.60
2016,01,18,20,54,2.30
2016,01,18,20,55,2.90
2016,01,18,20,56,1.60
2016,01,18,20,57,1.20
2016,01,18,20,58,0.90
2016,01,18,20,59,1.40
2016,01,18,21,00,1.50
2016,01,18,21,01,2.30
2016,01,18,21,02,2.30
2016,01,18,21,03,2.10
2016,01,18,21,04,2.30
2016,01,18,21,05,3.10
2016,01,18,21,06,2.80
2016,01,18,21,07,3.00
2016,01,18,21,08,3.00
2016,01,18,21,09,2.20
2016,01,18,21,10,2.00
2016,01,18,21,11,1.70
2016,01,18,21,12,2.20
2016,01,18,21,13,3.10
2016,01,18,21,14,2.40
2016,01,18,21,15,0.70
2016,01,18,21,16,0.00
2016,01,18,21,17,0.00
2016,01,18,21,18,0.00
2016,01,18,21,19,0.00
2016,01,18,21,20,0.70
2016,01,18,21,21,2.70
2016,01,18,21,22,3.70
2016,01,18,21,23,3.30
2016,01,18,21,24,3.70
2016,01,18,21,25,3.70
2016,01,18,21,26,2.20
2016,01,18,21,27,1.70
2016,01,18,21,28,2.80
2016,01,18,21,29,2.80
2016,01,18,21,30,2.60
2016,01,18,21,31,1.80
2016,01,18,21,32,1.90
2016,01,18,21,33,1.30
2016,01,18,21,34,1.50
2016,01,18,21,35,1.90
2016,01,18,21,36,2.70
2016,01,18,21,37,2.30
2016,01,18,21,38,2.30
2016,01,18,21,39,1.50
2016,01,18,21,40,1.00
2016,01,18,21,41,0.50
2016,01,18,21,42,0.00
2016,01,18,21,43,0.00
2016,01,18,21,44,0.00
2016,01,18,21,45,1.40
2016,01,18,21,46,2.80
2016,01,18,21,47,1.90
2016,01,18,21,48,0.70
2016,01,18,21,49,0.00
2016,01,18,21,50,0.00
2016,01,18,21,51,0.00
2016,01,18,21,52,0.10
2016,01,18,21,53,2.70
2016,01,18,21,54,4.50
2016,01,18,21,55,4.00
2016,01,18,21,56,3.10
2016,01,18,21,57,1.20
2016,01,18,21,58,0.10
2016,01,18,21,59,0.20
2016,01,18,22,00,0.00
2016,01,18,22,01,0.30
2016,01,18,22,02,0.70
2016,01,18,22,03,0.10
2016,01,18,22,04,0.00
2016,01,18,22,05,0.00
2016,01,18,22,06,0.00
2016,01,18,22,07,0.00
2016,01,18,22,08,0.00
2016,01,18,22,09,0.00
2016,01,18,22,10,0.30
2016,01,18,22,11,0.90
2016,01,18,22,12,1.70
2016,01,18,22,13,2.20
2016,01,18,22,14,1.00
2016,01,18,22,15,0.00
2016,01,18,22,16,0.00
2016,01,18,22,17,0.00
2016,01,18,22,18,0.00
2016,01,18,22,19,1.20
2016,01,18,22,20,1.90
2016,01,18,22,21,1.60
2016,01,18,22,22,0.90
2016,01,18,22,23,1.00
2016,01,18,22,24,2.10